GW0066 Weather Reports


Display with metric or nautical units.
time (UTC)temp
F
wind
direction
speed
MPH
gust
MPH
rain 1hr
in
rain 24hr
in
rain mn
in
humidity
%
barometer
mb
20260510060837 56 122 0.0 0.0 0.00 0.00 0.00 93 1009.8
20260510060338 56 121 0.0 0.0 0.00 0.00 0.00 92 1009.9
20260510055837 56 123 0.0 0.0 0.00 0.00 0.00 92 1009.7
20260510055337 56 120 0.0 0.0 0.00 0.00 0.00 91 1009.9
20260510054838 56 120 0.0 0.0 0.00 0.00 0.00 91 1010.0
20260510054338 56 120 0.0 0.0 0.00 0.00 0.00 90 1009.7
20260510053837 57 118 0.0 0.0 0.00 0.00 0.00 90 1009.8
20260510053337 57 121 0.0 0.0 0.00 0.00 0.00 89 1010.0
20260510052837 58 114 0.0 0.0 0.00 0.00 0.00 89 1010.0
20260510052337 58 92 0.0 0.0 0.00 0.00 0.00 88 1010.1
20260510051838 58 115 0.0 0.0 0.00 0.00 0.00 87 1010.0
20260510051337 58 105 0.0 0.0 0.00 0.00 0.00 87 1010.0
20260510050837 59 98 0.0 0.0 0.00 0.00 0.00 86 1010.0
20260510050338 59 85 0.0 1.0 0.00 0.00 0.00 87 1010.1
20260510045837 58 71 0.0 0.0 0.00 0.00 0.00 87 1010.1
20260510045337 58 118 0.0 0.0 0.00 0.00 0.00 87 1010.0
20260510044838 58 123 0.0 0.0 0.00 0.00 0.00 87 1010.1
20260510044338 58 119 0.0 0.0 0.00 0.00 0.00 86 1009.9
20260510043838 59 119 0.0 0.0 0.00 0.00 0.00 85 1010.0
20260510043337 59 113 0.0 0.0 0.00 0.00 0.00 85 1009.9
20260510042838 59 119 0.0 0.0 0.00 0.00 0.00 85 1009.7
20260510042338 60 122 0.0 0.0 0.00 0.00 0.00 84 1009.8
20260510041837 60 122 0.0 0.0 0.00 0.00 0.00 84 1009.8
20260510041338 60 123 0.0 0.0 0.00 0.00 0.00 84 1009.8
20260510040837 60 125 0.0 0.0 0.00 0.00 0.00 84 1009.9
20260510040337 60 124 0.0 0.0 0.00 0.00 0.00 84 1010.0
20260510035838 60 123 0.0 0.0 0.00 0.00 0.00 84 1009.9
20260510035337 60 119 0.0 0.0 0.00 0.00 0.00 83 1009.7
20260510034838 60 117 0.0 0.0 0.00 0.00 0.00 83 1009.9
20260510034337 60 113 0.0 0.0 0.00 0.00 0.00 83 1009.9
20260510033837 60 116 0.0 0.0 0.00 0.00 0.00 82 1009.7
20260510033338 60 117 0.0 0.0 0.00 0.00 0.00 82 1009.8
20260510032838 61 117 0.0 0.0 0.00 0.00 0.00 81 1009.4
20260510032338 61 117 0.0 0.0 0.00 0.00 0.00 81 1009.6
20260510031837 61 121 0.0 0.0 0.00 0.00 0.00 81 1009.7
20260510031338 61 117 0.0 0.0 0.00 0.00 0.00 80 1009.8
20260510030838 61 115 0.0 0.0 0.00 0.00 0.00 80 1009.8
20260510030338 62 117 0.0 0.0 0.00 0.00 0.00 79 1009.8
20260510025838 62 117 0.0 0.0 0.00 0.00 0.00 79 1009.8
20260510025338 62 118 0.0 0.0 0.00 0.00 0.00 79 1009.8
20260510024837 62 116 0.0 0.0 0.00 0.00 0.00 78 1009.8
20260510024337 62 117 0.0 0.0 0.00 0.00 0.00 78 1009.6
20260510023837 62 116 0.0 0.0 0.00 0.00 0.00 77 1009.5
20260510023337 62 115 0.0 0.0 0.00 0.00 0.00 77 1009.6
20260510022837 63 117 0.0 0.0 0.00 0.00 0.00 76 1009.4
20260510022337 63 119 0.0 0.0 0.00 0.00 0.00 76 1009.3
20260510021838 64 116 0.0 0.0 0.00 0.00 0.00 75 1009.5
20260510021338 64 117 0.0 0.0 0.00 0.00 0.00 75 1009.4
20260510020837 64 117 0.0 0.0 0.00 0.00 0.00 75 1009.3
20260510020338 64 117 0.0 0.0 0.00 0.00 0.00 75 1009.3
20260510015838 64 117 0.0 0.0 0.00 0.00 0.00 75 1009.3
20260510015338 63 117 0.0 0.0 0.00 0.00 0.00 75 1009.2
20260510014838 64 117 0.0 0.0 0.00 0.00 0.00 75 1009.0
20260510014337 64 117 0.0 0.0 0.00 0.00 0.00 75 1009.0
20260510013837 64 117 0.0 0.0 0.00 0.00 0.00 75 1008.9
20260510013337 64 112 0.0 0.0 0.00 0.00 0.00 75 1008.9
20260510012838 64 117 0.0 0.0 0.00 0.00 0.00 75 1008.9
20260510012338 64 117 0.0 0.0 0.00 0.00 0.00 74 1008.7
20260510011837 64 117 0.0 0.0 0.00 0.00 0.00 74 1008.7
20260510011337 64 117 0.0 0.0 0.00 0.00 0.00 73 1008.5
20260510010838 64 117 0.0 0.0 0.00 0.00 0.00 73 1008.4
20260510010337 64 117 0.0 0.0 0.00 0.00 0.00 72 1008.6
20260510005838 65 117 0.0 0.0 0.00 0.00 0.00 71 1008.6
20260510005338 65 117 0.0 0.0 0.00 0.00 0.00 70 1008.5
20260510004837 66 117 0.0 0.0 0.00 0.00 0.00 69 1008.4
20260510004338 66 117 0.0 0.0 0.00 0.00 0.00 69 1008.3
20260510003837 66 117 0.0 0.0 0.00 0.00 0.00 68 1008.1
20260510003338 66 117 0.0 0.0 0.00 0.00 0.00 67 1008.2
20260510002837 67 117 0.0 0.0 0.00 0.00 0.00 66 1008.3
20260510002337 67 116 0.0 0.0 0.00 0.00 0.00 65 1008.3
20260510001837 68 111 0.0 0.0 0.00 0.00 0.00 65 1008.2
20260510001337 68 117 0.0 0.0 0.00 0.00 0.00 64 1008.3
20260510000838 69 117 0.0 0.0 0.00 0.00 0.00 63 1008.3
20260510000337 69 116 0.0 0.0 0.00 0.00 0.00 62 1007.9
20260509235838 70 116 0.0 0.0 0.00 0.00 0.00 61 1007.9
20260509235338 70 117 0.0 0.0 0.00 0.00 0.00 60 1008.1
20260509234838 71 119 0.0 0.0 0.00 0.00 0.00 59 1008.2
20260509234338 71 115 0.0 0.0 0.00 0.00 0.00 59 1007.9
20260509233837 71 110 0.0 0.0 0.00 0.00 0.00 58 1007.9
20260509233337 72 118 0.0 0.0 0.00 0.00 0.00 56 1007.9
20260509232838 72 117 0.0 0.0 0.00 0.00 0.00 55 1008.1
20260509232337 72 97 0.0 0.0 0.00 0.00 0.00 54 1007.8
20260509231837 73 131 0.0 0.0 0.00 0.00 0.00 53 1007.8
20260509231338 73 120 0.0 0.0 0.00 0.00 0.00 52 1007.9
20260509230838 73 138 1.0 1.0 0.00 0.00 0.00 52 1007.9
20260509230337 73 118 0.0 0.0 0.00 0.00 0.00 52 1007.9
20260509225838 73 125 0.0 0.0 0.00 0.00 0.00 51 1007.8
20260509225338 74 132 0.0 1.0 0.00 0.00 0.00 50 1007.8
20260509224838 74 119 0.0 0.0 0.00 0.00 0.00 50 1007.9
20260509224337 75 70 0.0 0.0 0.00 0.00 0.00 48 1007.9
20260509223837 76 133 1.0 1.0 0.00 0.00 0.00 46 1008.1
20260509223438 77 107 0.0 1.0 0.00 0.00 0.00 43 1007.8
20260509222838 77 114 1.0 1.0 0.00 0.00 0.00 41 1007.8
20260509222338 76 84 0.0 0.0 0.00 0.00 0.00 44 1007.8
20260509221838 75 126 0.0 0.0 0.00 0.00 0.00 45 1007.9
20260509221337 74 109 1.0 2.0 0.00 0.00 0.00 45 1007.9
20260509220838 74 162 0.0 0.0 0.00 0.00 0.00 45 1008.1
20260509220338 74 143 2.0 2.0 0.00 0.00 0.00 45 1008.0
20260509215838 75 73 0.0 1.0 0.00 0.00 0.00 45 1008.0
20260509215338 77 138 2.0 2.0 0.00 0.00 0.00 43 1007.9
20260509214838 79 47 1.0 2.0 0.00 0.00 0.00 42 1007.7
20260509214338 79 150 1.0 2.0 0.00 0.00 0.00 44 1007.6
20260509213838 77 86 1.0 2.0 0.00 0.00 0.00 45 1007.8
20260509213337 76 102 0.0 0.0 0.00 0.00 0.00 46 1007.9
20260509212838 76 129 1.0 1.0 0.00 0.00 0.00 48 1007.7
20260509212337 76 85 2.0 3.0 0.00 0.00 0.00 46 1007.7
20260509211838 75 80 1.0 2.0 0.00 0.00 0.00 47 1007.6
20260509211338 76 81 0.0 1.0 0.00 0.00 0.00 47 1007.8
20260509210838 77 10 0.0 2.0 0.00 0.00 0.00 44 1007.7
20260509210338 78 94 2.0 2.0 0.00 0.00 0.00 43 1007.8
20260509205838 78 115 0.0 0.0 0.00 0.00 0.00 46 1007.9
20260509205337 77 135 0.0 0.0 0.00 0.00 0.00 51 1007.6
20260509204838 76 148 1.0 2.0 0.00 0.00 0.00 50 1007.6
20260509204337 76 33 2.0 3.0 0.00 0.00 0.00 49 1007.8
20260509203837 76 64 1.0 1.0 0.00 0.00 0.00 50 1007.8
20260509203337 76 63 1.0 1.0 0.00 0.00 0.00 48 1007.5
20260509202837 76 109 1.0 1.0 0.00 0.00 0.00 48 1007.8
20260509202337 77 140 1.0 1.0 0.00 0.00 0.00 50 1007.5
20260509201838 76 208 1.0 2.0 0.00 0.00 0.00 49 1007.6
20260509201338 76 119 2.0 2.0 0.00 0.00 0.00 48 1007.7
20260509200838 76 66 1.0 1.0 0.00 0.00 0.00 51 1007.7
20260509200338 75 121 0.0 1.0 0.00 0.00 0.00 52 1008.0
20260509195838 75 161 1.0 2.0 0.00 0.00 0.00 51 1008.2
20260509195337 75 78 2.0 2.0 0.00 0.00 0.00 51 1008.2
20260509194837 74 97 1.0 2.0 0.00 0.00 0.00 52 1008.1
20260509194338 74 23 2.0 2.0 0.00 0.00 0.00 50 1008.2
20260509193837 74 359 2.0 2.0 0.00 0.00 0.00 51 1008.2
20260509193338 75 18 2.0 2.0 0.00 0.00 0.00 50 1008.1
20260509192838 74 237 1.0 1.0 0.00 0.00 0.00 52 1008.6
20260509192338 73 72 2.0 2.0 0.00 0.00 0.00 51 1008.7
20260509191837 72 79 1.0 2.0 0.00 0.00 0.00 53 1008.6
20260509191338 71 131 1.0 1.0 0.00 0.00 0.00 55 1008.8
20260509190837 71 143 0.0 0.0 0.00 0.00 0.00 56 1008.9
20260509190338 71 228 1.0 2.0 0.00 0.00 0.00 55 1009.0
20260509185837 71 51 1.0 1.0 0.00 0.00 0.00 57 1008.9
20260509185338 71 86 1.0 2.0 0.00 0.00 0.00 56 1008.8
20260509184837 72 82 2.0 3.0 0.00 0.00 0.00 54 1009.0
20260509184338 72 111 2.0 2.0 0.00 0.00 0.00 55 1008.8
20260509183838 71 125 0.0 0.0 0.00 0.00 0.00 55 1008.8
20260509183338 70 112 1.0 1.0 0.00 0.00 0.00 57 1008.6
20260509182838 70 119 0.0 0.0 0.00 0.00 0.00 58 1008.8
20260509182337 70 93 1.0 1.0 0.00 0.00 0.00 55 1009.2
20260509181838 70 142 0.0 0.0 0.00 0.00 0.00 56 1009.3
20260509181338 70 26 1.0 3.0 0.00 0.00 0.00 56 1009.1
20260509180838 69 113 1.0 1.0 0.00 0.00 0.00 56 1009.4
20260509180337 69 137 1.0 1.0 0.00 0.00 0.00 56 1009.5
20260509175838 69 246 2.0 3.0 0.00 0.00 0.00 56 1009.9
20260509175337 69 128 0.0 0.0 0.00 0.00 0.00 57 1009.8
20260509174838 69 69 3.0 3.0 0.00 0.00 0.00 57 1009.9
20260509174338 69 123 0.0 0.0 0.00 0.00 0.00 57 1010.0
20260509173837 70 120 0.0 0.0 0.00 0.00 0.00 57 1009.9
20260509173337 70 115 1.0 1.0 0.00 0.00 0.00 56 1009.9
20260509172838 70 123 1.0 1.0 0.00 0.00 0.00 56 1009.9
20260509172338 71 123 0.0 0.0 0.00 0.00 0.00 55 1009.8
20260509171838 71 116 0.0 0.0 0.00 0.00 0.00 55 1009.7
20260509171337 71 108 2.0 3.0 0.00 0.00 0.00 54 1010.0
20260509170838 72 245 2.0 3.0 0.00 0.00 0.00 53 1009.9
20260509170338 71 117 1.0 2.0 0.00 0.00 0.00 54 1009.6
20260509165838 70 74 2.0 3.0 0.00 0.00 0.00 54 1010.0
20260509165338 69 211 2.0 3.0 0.00 0.00 0.00 57 1010.0
20260509164838 69 148 0.0 0.0 0.00 0.00 0.00 57 1010.0
20260509164338 69 146 1.0 1.0 0.00 0.00 0.00 57 1010.4
20260509163838 69 58 2.0 4.0 0.00 0.00 0.00 58 1010.0
20260509163337 69 80 4.0 6.0 0.00 0.00 0.00 56 1010.1
20260509162837 69 289 0.0 0.0 0.00 0.00 0.00 59 1010.0
20260509162338 69 77 5.0 7.0 0.00 0.00 0.00 57 1010.2
20260509161837 69 92 2.0 3.0 0.00 0.00 0.00 57 1010.1
20260509161337 69 169 0.0 1.0 0.00 0.00 0.00 59 1009.9
20260509160838 68 119 2.0 3.0 0.00 0.00 0.00 58 1010.0
20260509160338 68 68 1.0 1.0 0.00 0.00 0.00 58 1010.0
20260509155838 69 58 1.0 1.0 0.00 0.00 0.00 56 1010.1
20260509155338 68 96 2.0 3.0 0.00 0.00 0.00 56 1010.2
20260509154837 68 81 1.0 2.0 0.00 0.00 0.00 58 1010.2
20260509154337 68 72 4.0 6.0 0.00 0.00 0.00 57 1010.2
20260509153837 68 88 4.0 6.0 0.00 0.00 0.00 56 1010.3
20260509153337 68 79 2.0 2.0 0.00 0.00 0.00 57 1010.4
20260509152838 68 133 0.0 0.0 0.00 0.00 0.00 57 1010.3
20260509152338 68 150 2.0 3.0 0.00 0.00 0.00 56 1010.4
20260509151837 68 73 2.0 3.0 0.00 0.00 0.00 54 1010.7
20260509151338 68 192 2.0 3.0 0.00 0.00 0.00 56 1010.5
20260509150838 67 117 2.0 2.0 0.00 0.00 0.00 57 1010.4
20260509150338 67 165 2.0 2.0 0.00 0.00 0.00 57 1010.7
20260509145837 67 117 2.0 3.0 0.00 0.00 0.00 55 1010.6
20260509145337 67 126 2.0 2.0 0.00 0.00 0.00 57 1010.5
20260509144838 66 86 1.0 2.0 0.00 0.00 0.00 57 1010.8
20260509144337 65 88 0.0 1.0 0.00 0.00 0.00 59 1010.7
20260509143838 64 89 1.0 1.0 0.00 0.00 0.00 60 1010.8
20260509143338 64 121 1.0 2.0 0.00 0.00 0.00 61 1010.9
20260509142838 64 119 1.0 1.0 0.00 0.00 0.00 63 1010.8
20260509142338 63 99 2.0 3.0 0.00 0.00 0.00 62 1010.8
20260509141837 62 114 0.0 0.0 0.00 0.00 0.00 63 1010.9
20260509141337 62 165 0.0 0.0 0.00 0.00 0.00 64 1010.9
20260509140838 62 128 1.0 1.0 0.00 0.00 0.00 65 1011.0
20260509140338 61 96 0.0 0.0 0.00 0.00 0.00 64 1011.2
20260509135838 60 91 3.0 3.0 0.00 0.00 0.00 64 1011.1
20260509135337 60 93 2.0 3.0 0.00 0.00 0.00 65 1011.2
20260509134838 60 105 1.0 1.0 0.00 0.00 0.00 65 1011.1
20260509134338 59 86 1.0 1.0 0.00 0.00 0.00 66 1011.0
20260509133838 59 111 1.0 1.0 0.00 0.00 0.00 67 1011.1
20260509133338 59 139 0.0 0.0 0.00 0.00 0.00 66 1011.1
20260509132838 59 134 0.0 1.0 0.00 0.00 0.00 66 1011.2
20260509132338 58 167 1.0 2.0 0.00 0.00 0.00 67 1011.1
20260509131838 58 83 1.0 1.0 0.00 0.00 0.00 66 1011.3
20260509131337 58 116 0.0 0.0 0.00 0.00 0.00 67 1011.1
20260509130838 58 93 0.0 0.0 0.00 0.00 0.00 66 1011.0
20260509130337 58 115 2.0 2.0 0.00 0.00 0.00 66 1011.1
20260509125838 58 61 1.0 1.0 0.00 0.00 0.00 66 1011.0
20260509125338 58 115 0.0 0.0 0.00 0.00 0.00 66 1011.0
20260509124837 58 129 0.0 1.0 0.00 0.00 0.00 66 1011.2
20260509124337 58 68 0.0 0.0 0.00 0.00 0.00 66 1011.2
20260509123838 58 118 0.0 0.0 0.00 0.00 0.00 65 1010.9
20260509123337 58 104 0.0 1.0 0.00 0.00 0.00 65 1011.2
20260509122837 58 47 1.0 4.0 0.00 0.00 0.00 64 1011.0
20260509122338 58 77 0.0 1.0 0.00 0.00 0.00 65 1011.1
20260509121838 58 85 0.0 1.0 0.00 0.00 0.00 63 1011.1
20260509121337 58 82 0.0 0.0 0.00 0.00 0.00 65 1011.1
20260509120837 58 126 0.0 0.0 0.00 0.00 0.00 63 1011.1
20260509120337 58 84 1.0 2.0 0.00 0.00 0.00 63 1010.9
20260509115837 58 132 0.0 0.0 0.00 0.00 0.00 63 1010.7
20260509115338 58 96 0.0 1.0 0.00 0.00 0.00 62 1011.0
20260509114838 58 95 2.0 3.0 0.00 0.00 0.00 61 1011.0
20260509114338 58 102 0.0 1.0 0.00 0.00 0.00 61 1011.1
20260509113838 58 156 0.0 0.0 0.00 0.00 0.00 61 1011.1
20260509113338 58 86 0.0 1.0 0.00 0.00 0.00 60 1011.1
20260509112838 58 59 1.0 2.0 0.00 0.00 0.00 59 1010.8
20260509112337 58 126 1.0 1.0 0.00 0.00 0.00 60 1010.8
20260509111837 58 41 1.0 2.0 0.00 0.00 0.00 58 1010.8
20260509111337 58 95 0.0 0.0 0.00 0.00 0.00 58 1010.9
20260509110837 58 112 0.0 1.0 0.00 0.00 0.00 57 1010.8
20260509110337 58 127 0.0 1.0 0.00 0.00 0.00 58 1010.7
20260509105837 58 102 0.0 0.0 0.00 0.00 0.00 57 1010.7
20260509105337 58 98 1.0 2.0 0.00 0.00 0.00 57 1010.8
20260509104838 58 122 1.0 2.0 0.00 0.00 0.00 57 1010.5
20260509104338 58 51 1.0 1.0 0.00 0.00 0.00 57 1010.8
20260509103838 58 120 0.0 0.0 0.00 0.00 0.00 57 1010.7
20260509103337 58 103 0.0 1.0 0.00 0.00 0.00 57 1010.6
20260509102837 58 84 1.0 1.0 0.00 0.00 0.00 57 1010.6
20260509102338 58 120 0.0 1.0 0.00 0.00 0.00 57 1010.8
20260509101838 58 107 0.0 0.0 0.00 0.00 0.00 57 1010.7
20260509101337 58 113 0.0 1.0 0.00 0.00 0.00 57 1010.5
20260509100838 58 135 0.0 0.0 0.00 0.00 0.00 57 1010.6
20260509100339 58 121 0.0 0.0 0.00 0.00 0.00 57 1010.5
20260509095838 58 119 1.0 1.0 0.00 0.00 0.00 56 1010.3
20260509095338 58 119 0.0 0.0 0.00 0.00 0.00 56 1010.5
20260509094838 58 141 0.0 1.0 0.00 0.00 0.00 56 1010.5
20260509094338 58 93 0.0 1.0 0.00 0.00 0.00 56 1010.2
20260509093837 58 123 2.0 2.0 0.00 0.00 0.00 56 1010.3
20260509093338 58 81 0.0 1.0 0.00 0.00 0.00 56 1010.4
20260509092837 58 111 1.0 1.0 0.00 0.00 0.00 56 1010.6
20260509092338 58 167 0.0 1.0 0.00 0.00 0.00 56 1010.7
20260509091837 58 89 0.0 1.0 0.00 0.00 0.00 56 1010.7
20260509091337 58 91 1.0 1.0 0.00 0.00 0.00 56 1010.7
20260509090838 58 114 0.0 1.0 0.00 0.00 0.00 56 1010.9
20260509090337 57 89 0.0 2.0 0.00 0.00 0.00 57 1011.1
20260509085837 57 117 0.0 0.0 0.00 0.00 0.00 58 1010.9
20260509085337 57 112 0.0 0.0 0.00 0.00 0.00 58 1010.8
20260509084838 57 113 0.0 0.0 0.00 0.00 0.00 58 1010.9
20260509084337 57 111 0.0 0.0 0.00 0.00 0.00 58 1011.0
20260509083837 57 126 1.0 2.0 0.00 0.00 0.00 58 1010.9
20260509083338 56 89 2.0 3.0 0.00 0.00 0.00 59 1011.0
20260509082837 56 110 1.0 1.0 0.00 0.00 0.00 59 1010.9
20260509082337 56 80 1.0 1.0 0.00 0.00 0.00 59 1011.0
20260509081837 56 133 0.0 1.0 0.00 0.00 0.00 60 1010.9
20260509081338 56 137 2.0 4.0 0.00 0.00 0.00 59 1011.0
20260509080838 56 187 1.0 2.0 0.00 0.00 0.00 60 1011.1
20260509080337 56 104 1.0 1.0 0.00 0.00 0.00 60 1011.3
20260509075837 56 78 1.0 2.0 0.00 0.00 0.00 60 1011.2
20260509075338 56 118 0.0 1.0 0.00 0.00 0.00 60 1011.3
20260509074837 56 98 3.0 3.0 0.00 0.00 0.00 60 1011.2
20260509074338 56 92 1.0 2.0 0.00 0.00 0.00 60 1011.1
20260509073837 56 118 1.0 2.0 0.00 0.00 0.00 60 1011.4
20260509073338 56 85 1.0 2.0 0.00 0.00 0.00 60 1011.5
20260509072838 56 102 1.0 2.0 0.00 0.00 0.00 60 1011.4
20260509072338 56 129 1.0 2.0 0.00 0.00 0.00 60 1011.2
20260509071838 56 104 0.0 0.0 0.00 0.00 0.00 59 1011.2
20260509071337 57 135 1.0 1.0 0.00 0.00 0.00 59 1011.4
20260509070837 57 99 2.0 2.0 0.00 0.00 0.00 58 1011.2
20260509070338 57 57 1.0 1.0 0.00 0.00 0.00 57 1011.3
20260509065837 58 102 1.0 1.0 0.00 0.00 0.00 56 1011.4
20260509065337 58 81 1.0 1.0 0.00 0.00 0.00 55 1011.2
20260509064838 58 121 1.0 1.0 0.00 0.00 0.00 54 1011.4
20260509064337 58 97 1.0 1.0 0.00 0.00 0.00 54 1011.3
20260509063838 58 117 2.0 2.0 0.00 0.00 0.00 53 1011.3
20260509063338 58 151 1.0 1.0 0.00 0.00 0.00 53 1011.3
20260509062838 58 75 1.0 2.0 0.00 0.00 0.00 53 1011.4
20260509062337 58 115 0.0 1.0 0.00 0.00 0.00 54 1011.6
20260509061837 58 100 1.0 1.0 0.00 0.00 0.00 53 1011.5
20260509061338 58 114 0.0 0.0 0.00 0.00 0.00 54 1011.5